Location: Beaver Brook Trail
(44.0290°N, 71.8137°W)
Time: 02:27:18
(UTC+00:00)

SR - Pass Details

Date: 21 November 2024
Orbit: 573 x 858 km, 66.7° (Epoch: 03 December)

Event Time Altitude Azimuth Distance (km) Brightness Sun altitude
Exits shadow 08:25:35 17° 31° (NNE) 1,890 ? -36.5°
Maximum altitude 08:26:07 17° 39° (NE) 1,885 ? -36.4°
Drops below altitude 10° 08:29:39 10° 79° (E) 2,384 ? -35.8°
Sets 08:33:02 0° 99° (E) 3,358 ? -35.2°
